KC7FQC Weather Reports


Display with metric or nautical units.
time (UTC)temp
F
wind
direction
speed
MPH
gust
MPH
rain 1hr
in
rain 24hr
in
rain mn
in
humidity
%
barometer
mb
20170629033033 99 236 2.0 6.0 0.00 0.00 0.00 15 1005.4
20170629030048 100 236 2.0 9.0 0.00 0.00 0.00 14 1005.5
20170629023103 101 220 5.0 13.0 0.00 0.00 0.00 14 1005.1
20170629020118 103 217 6.0 13.0 0.00 0.00 0.00 13 1005.0
20170629013033 104 236 4.0 14.0 0.00 0.00 0.00 14 1004.6
20170629010117 105 227 6.0 12.0 0.00 0.00 0.00 13 1004.7
20170629003047 106 211 10.0 14.0 0.00 0.00 0.00 11 1004.6
20170629000117 106 242 6.0 13.0 0.00 0.00 0.00 11 1004.8
20170628233047 107 240 11.0 14.0 0.00 0.00 0.00 12 1005.3
20170628230103 107 186 6.0 14.0 0.00 0.00 0.00 11 1005.5
20170628223047 107 254 8.0 16.0 0.00 0.00 0.00 14 1006.0
20170628220117 106 252 0.0 16.0 0.00 0.00 0.00 13 1006.4
20170628213047 104 130 8.0 15.0 0.00 0.00 0.00 15 1007.0
20170628210117 104 176 5.0 14.0 0.00 0.00 0.00 15 1007.2
20170628203117 102 209 7.0 15.0 0.00 0.00 0.00 15 1007.9
20170628200047 103 223 1.0 14.0 0.00 0.00 0.00 19 1008.3
20170628193117 101 208 9.0 14.0 0.00 0.00 0.00 18 1008.7
20170628190117 101 175 8.0 14.0 0.00 0.00 0.00 17 1008.8
20170628183117 98 150 9.0 12.0 0.00 0.00 0.00 23 1009.1
20170628180116 97 200 7.0 12.0 0.00 0.00 0.00 26 1009.4
20170628173116 96 138 5.0 14.0 0.00 0.00 0.00 25 1009.8
20170628170116 96 180 8.0 13.0 0.00 0.00 0.00 25 1009.7
20170628163116 97 215 5.0 10.0 0.00 0.00 0.00 25 1009.8
20170628160116 96 215 0.0 6.0 0.00 0.00 0.00 20 1010.0
20170628153116 92 215 0.0 7.0 0.00 0.00 0.00 24 1010.1
20170628150116 89 227 0.0 7.0 0.00 0.00 0.00 28 1009.9
20170628143046 87 240 2.0 6.0 0.00 0.00 0.00 30 1009.6
20170628140116 83 240 0.0 5.0 0.00 0.00 0.00 34 1009.2
20170628133116 80 240 5.0 5.0 0.00 0.00 0.00 37 1008.8
20170628130046 78 240 0.0 2.0 0.00 0.00 0.00 38 1008.0
20170628123031 79 240 0.0 2.0 0.00 0.00 0.00 37 1007.6
20170628120116 80 240 0.0 2.0 0.00 0.00 0.00 36 1007.4
20170628113046 81 240 0.0 2.0 0.00 0.00 0.00 35 1007.4
20170628110046 81 240 1.0 4.0 0.00 0.00 0.00 33 1006.9
20170628103116 83 240 0.0 0.0 0.00 0.00 0.00 30 1007.0
20170628100046 84 240 0.0 4.0 0.00 0.00 0.00 29 1006.7
20170628093031 85 240 0.0 2.0 0.00 0.00 0.00 28 1006.7
20170628090115 87 240 0.0 5.0 0.00 0.00 0.00 26 1006.8
20170628083045 88 240 1.0 6.0 0.00 0.00 0.00 25 1007.0
20170628080045 89 242 4.0 14.0 0.00 0.00 0.00 24 1006.9
20170628073101 90 223 6.0 12.0 0.00 0.00 0.00 24 1006.8
20170628070115 92 213 9.0 12.0 0.00 0.00 0.00 21 1006.9
20170628063101 93 225 6.0 9.0 0.00 0.00 0.00 17 1006.8
20170628060100 95 229 5.0 15.0 0.00 0.00 0.00 13 1006.5
20170628053115 94 215 4.0 5.0 0.00 0.00 0.00 12 1005.8
20170628050100 96 216 5.0 10.0 0.00 0.00 0.00 12 1005.5
20170628043100 97 216 2.0 9.0 0.00 0.00 0.00 11 1005.2
20170628040115 98 213 6.0 10.0 0.00 0.00 0.00 12 1004.9